CW0774 Weather Reports


Display with metric or nautical units.
time (UTC)temp
F
wind
direction
speed
MPH
gust
MPH
rain 1hr
in
rain 24hr
in
rain mn
in
humidity
%
barometer
mb
20260507104914 48 4 0.0 0.0 0.00 0.00 0.00 100 1013.0
20260507104414 48 4 0.0 0.0 0.00 0.00 0.00 100 1012.3
20260507103915 48 4 0.0 0.0 0.00 0.00 0.00 100 1012.2
20260507103414 48 4 0.0 0.0 0.00 0.00 0.00 100 1012.7
20260507102913 48 4 0.0 0.0 0.00 0.00 0.00 100 1012.6
20260507102414 48 4 0.0 0.0 0.00 0.00 0.00 100 1012.1
20260507101914 48 4 0.0 0.0 0.00 0.00 0.00 100 1012.2
20260507101414 48 4 0.0 0.0 0.00 0.00 0.00 100 1012.2
20260507100914 48 4 0.0 0.0 0.00 0.00 0.00 100 1012.1
20260507100414 48 4 0.0 0.0 0.00 0.00 0.00 100 1012.3
20260507095914 48 4 0.0 0.0 0.00 0.00 0.00 100 1011.8
20260507095414 48 4 0.0 0.0 0.00 0.00 0.00 100 1011.4
20260507094914 48 4 0.0 0.0 0.00 0.00 0.00 100 1011.5
20260507094414 48 4 0.0 0.0 0.00 0.00 0.00 100 1011.9
20260507093414 48 4 0.0 0.0 0.00 0.00 0.00 100 1011.5
20260507092914 48 4 0.0 0.0 0.00 0.00 0.00 100 1011.2
20260507091914 48 4 0.0 0.0 0.00 0.00 0.00 100 1011.6
20260507091414 48 4 0.0 3.0 0.00 0.00 0.00 100 1011.8
20260507090914 48 4 0.0 3.0 0.00 0.00 0.00 100 1011.5
20260507090414 48 24 0.0 3.0 0.00 0.00 0.00 100 1011.5
20260507085915 48 24 0.0 3.0 0.00 0.00 0.00 100 1011.5
20260507085414 48 23 0.0 3.0 0.00 0.00 0.00 100 1011.7
20260507084414 49 8 0.0 5.0 0.00 0.00 0.00 100 1011.5
20260507083914 49 3 0.0 7.0 0.00 0.00 0.00 100 1011.4
20260507083415 49 8 2.0 7.0 0.00 0.00 0.00 100 1011.1
20260507082914 49 6 0.0 6.0 0.00 0.00 0.00 100 1011.0
20260507081914 49 18 1.0 5.0 0.00 0.00 0.00 100 1011.5
20260507081414 49 16 0.0 3.0 0.00 0.00 0.00 100 1011.6
20260507080916 49 16 0.0 5.0 0.00 0.00 0.00 100 1011.5
20260507080415 49 15 1.0 5.0 0.00 0.00 0.00 100 1011.0
20260507075914 49 13 0.0 5.0 0.00 0.00 0.00 100 1011.2
20260507075414 49 9 2.0 6.0 0.00 0.00 0.00 100 1011.0
20260507074914 49 12 2.0 6.0 0.00 0.00 0.00 100 1011.2
20260507073914 50 15 2.0 5.0 0.00 0.00 0.00 100 1011.2
20260507073414 50 11 0.0 5.0 0.00 0.00 0.00 100 1010.9
20260507072915 50 10 0.0 5.0 0.00 0.00 0.00 100 1010.8
20260507072414 50 11 2.0 5.0 0.00 0.00 0.00 100 1011.0
20260507071414 50 14 0.0 0.0 0.00 0.00 0.00 100 1010.6
20260507070414 50 14 0.0 0.0 0.00 0.00 0.00 100 1010.8
20260507065914 50 14 0.0 0.0 0.00 0.00 0.00 100 1010.6
20260507065414 50 14 0.0 0.0 0.00 0.00 0.00 100 1010.2
20260507064914 50 14 0.0 0.0 0.00 0.00 0.00 100 1010.2
20260507064414 50 14 0.0 0.0 0.00 0.00 0.00 100 1010.3
20260507063413 50 14 0.0 0.0 0.00 0.00 0.00 100 1010.2
20260507062915 50 14 0.0 0.0 0.00 0.00 0.00 100 1010.1
20260507062414 50 14 0.0 0.0 0.00 0.00 0.00 100 1010.1
20260507061415 51 14 0.0 0.0 0.00 0.00 0.00 100 1010.2
20260507055914 51 14 0.0 6.0 0.00 0.00 0.00 100 1009.7
20260507055415 51 30 1.0 6.0 0.00 0.00 0.00 100 1010.1
20260507054914 51 17 2.0 6.0 0.00 0.00 0.00 100 1010.2
20260507054416 52 18 1.0 6.0 0.00 0.00 0.00 100 1010.1
20260507053914 52 7 0.0 3.0 0.00 0.00 0.00 100 1010.0
20260507053414 52 14 0.0 0.0 0.00 0.00 0.00 100 1009.9
20260507052914 52 14 0.0 7.0 0.00 0.00 0.00 100 1010.0
20260507052415 52 14 0.0 7.0 0.00 0.00 0.00 100 1009.9
20260507051914 52 20 1.0 7.0 0.00 0.00 0.00 100 1010.0
20260507051414 52 11 1.0 7.0 0.00 0.00 0.00 100 1010.0
20260507045914 52 29 3.0 9.0 0.00 0.00 0.00 100 1009.6
20260507045415 52 13 1.0 5.0 0.00 0.00 0.00 100 1009.6
20260507044914 51 134 0.0 2.0 0.00 0.00 0.00 100 1009.8
20260507044414 51 134 0.0 0.0 0.00 0.00 0.00 100 1009.8
20260507043914 51 134 0.0 0.0 0.00 0.00 0.00 100 1010.0
20260507043414 51 134 0.0 7.0 0.00 0.00 0.00 100 1010.1
20260507042915 51 134 1.0 7.0 0.00 0.00 0.00 100 1010.1
20260507042414 51 124 1.0 7.0 0.00 0.00 0.00 100 1010.1
20260507041914 51 164 0.0 5.0 0.00 0.00 0.00 100 1009.9
20260507040914 51 178 1.0 5.0 0.00 0.00 0.00 100 1009.1
20260507040415 51 186 0.0 2.0 0.00 0.00 0.00 100 1009.2
20260507035914 51 186 0.0 5.0 0.00 0.00 0.00 100 1009.2
20260507035414 51 179 0.0 6.0 0.00 0.00 0.00 100 1009.1
20260507034914 51 213 1.0 6.0 0.00 0.00 0.00 100 1009.2
20260507033915 51 133 0.0 7.0 0.00 0.00 0.00 100 1009.2
20260507033414 51 182 1.0 8.0 0.00 0.00 0.00 100 1009.3
20260507032914 51 150 2.0 10.0 0.00 0.00 0.00 100 1009.3
20260507032414 51 136 1.0 10.0 0.00 0.00 0.00 100 1009.4
20260507031914 51 157 1.0 10.0 0.00 0.00 0.00 100 1009.2
20260507031414 51 167 1.0 9.0 0.00 0.00 0.00 100 1009.4
20260507030914 51 185 3.0 9.0 0.00 0.00 0.00 100 1009.2
20260507025914 51 194 0.0 13.0 0.00 0.00 0.00 100 1009.4
20260507025414 51 224 0.0 13.0 0.00 0.00 0.00 100 1009.4
20260507024914 51 147 2.0 13.0 0.00 0.00 0.00 100 1009.5
20260507022915 51 78 0.0 6.0 0.00 0.00 0.00 100 1009.7
20260507022415 51 78 0.0 6.0 0.00 0.00 0.00 100 1009.7
20260507021914 51 148 0.0 12.0 0.00 0.00 0.00 100 1009.8
20260507020414 51 178 0.0 6.0 0.00 0.00 0.00 100 1009.8
20260507015914 51 193 1.0 12.0 0.00 0.00 0.00 100 1010.0
20260507015414 51 195 0.0 12.0 0.00 0.00 0.00 100 1010.0
20260507014915 51 161 0.0 10.0 0.00 0.00 0.00 100 1010.0
20260507014414 51 193 1.0 10.0 0.00 0.00 0.00 100 1010.1
20260507013414 51 152 2.0 14.0 0.00 0.00 0.00 100 1010.1
20260507012915 51 137 3.0 14.0 0.00 0.00 0.00 100 1010.2
20260507012414 52 144 1.0 14.0 0.00 0.00 0.00 100 1010.2
20260507011914 52 163 1.0 14.0 0.00 0.00 0.00 100 1010.2
20260507011415 52 172 1.0 12.0 0.00 0.00 0.00 100 1010.2
20260507010414 52 267 2.0 15.0 0.00 0.00 0.00 100 1010.2
20260507005915 52 88 1.0 15.0 0.00 0.00 0.00 100 1010.2
20260507005414 53 192 3.0 12.0 0.00 0.00 0.00 100 1010.3
20260507004914 53 167 1.0 13.0 0.00 0.00 0.00 100 1010.3
20260507004414 53 176 1.0 13.0 0.00 0.00 0.00 100 1010.3
20260507003915 53 158 1.0 12.0 0.00 0.00 0.00 100 1010.4
20260507003414 53 185 0.0 10.0 0.00 0.00 0.00 100 1010.4
20260507002914 53 188 1.0 14.0 0.00 0.00 0.00 100 1010.4
20260507002414 53 144 1.0 14.0 0.00 0.00 0.00 100 1010.5
20260507001915 53 166 2.0 14.0 0.00 0.00 0.00 100 1010.6
20260507001414 53 130 1.0 13.0 0.00 0.00 0.00 100 1010.5
20260507000914 53 182 1.0 13.0 0.00 0.00 0.00 100 1010.4
20260507000414 54 176 1.0 10.0 0.00 0.00 0.00 100 1010.4
20260506235914 54 199 1.0 9.0 0.00 0.00 0.00 100 1010.4
20260506234914 54 166 2.0 12.0 0.00 0.00 0.00 100 1010.4
20260506234415 54 199 2.0 12.0 0.00 0.00 0.00 100 1010.5
20260506233914 54 190 2.0 13.0 0.00 0.00 0.00 100 1010.6
20260506233415 54 96 3.0 13.0 0.00 0.00 0.00 100 1010.5
20260506232914 54 205 2.0 12.0 0.00 0.00 0.00 100 1010.5
20260506232415 54 147 3.0 14.0 0.00 0.00 0.00 100 1010.6
20260506231914 54 150 1.0 14.0 0.00 0.00 0.00 100 1010.6
20260506231414 54 125 1.0 15.0 0.00 0.00 0.00 100 1010.7
20260506230915 54 222 1.0 16.0 0.00 0.00 0.00 100 1010.7
20260506225915 54 42 3.0 15.0 0.00 0.00 0.00 100 1010.7
20260506225415 54 183 3.0 13.0 0.00 0.00 0.00 100 1010.8
20260506224414 53 100 1.0 9.0 0.00 0.00 0.00 100 1010.9
20260506223914 53 142 2.0 9.0 0.00 0.00 0.00 100 1011.0
20260506223415 53 150 1.0 14.0 0.00 0.00 0.00 100 1011.1
20260506222915 53 234 1.0 14.0 0.00 0.00 0.00 100 1011.2
20260506222414 53 114 1.0 18.0 0.00 0.00 0.00 100 1011.1
20260506221915 53 186 3.0 18.0 0.00 0.00 0.00 100 1011.1
20260506221414 53 162 2.0 15.0 0.00 0.00 0.00 100 1011.1
20260506220914 53 205 3.0 15.0 0.00 0.00 0.00 100 1011.2
20260506220414 53 155 5.0 15.0 0.00 0.00 0.00 100 1011.3
20260506215915 53 178 2.0 15.0 0.00 0.00 0.00 100 1011.3
20260506215414 53 212 1.0 17.0 0.00 0.00 0.00 100 1011.4
20260506214915 53 43 2.0 17.0 0.00 0.00 0.00 100 1011.5
20260506214416 53 187 2.0 14.0 0.00 0.00 0.00 100 1011.5
20260506213914 52 128 3.0 15.0 0.00 0.00 0.00 100 1011.5
20260506213415 52 234 4.0 15.0 0.00 0.00 0.00 100 1011.6
20260506212415 52 159 3.0 14.0 0.00 0.00 0.00 100 1011.7
20260506210914 52 326 1.0 12.0 0.00 0.00 0.00 100 1011.9
20260506210414 52 145 4.0 12.0 0.00 0.00 0.00 100 1011.9
20260506205914 52 112 1.0 9.0 0.00 0.00 0.00 100 1011.9
20260506204914 53 227 3.0 10.0 0.00 0.00 0.00 100 1011.9
20260506203915 53 230 1.0 7.0 0.00 0.00 0.00 100 1011.8
20260506203414 53 296 2.0 8.0 0.00 0.00 0.00 100 1011.9
20260506202914 53 103 1.0 12.0 0.00 0.00 0.00 100 1012.0
20260506202414 53 130 2.0 12.0 0.00 0.00 0.00 99 1012.3
20260506201915 53 152 0.0 9.0 0.00 0.00 0.00 99 1012.2
20260506201415 53 89 4.0 10.0 0.00 0.00 0.00 99 1012.4
20260506200914 53 199 3.0 12.0 0.00 0.00 0.00 98 1012.6
20260506200415 53 217 2.0 12.0 0.00 0.00 0.00 98 1012.6
20260506195916 53 118 4.0 8.0 0.00 0.00 0.00 98 1012.7
20260506193914 54 182 4.0 10.0 0.00 0.00 0.00 96 1012.6
20260506193415 54 100 1.0 13.0 0.00 0.00 0.00 96 1012.5
20260506192414 54 155 4.0 20.0 0.00 0.00 0.00 95 1012.4
20260506191914 55 207 6.0 20.0 0.00 0.00 0.00 94 1012.2
20260506191414 55 194 6.0 20.0 0.00 0.00 0.00 94 1012.1
20260506190914 55 142 4.0 13.0 0.00 0.00 0.00 94 1012.2
20260506190414 55 171 6.0 13.0 0.00 0.00 0.00 93 1012.0
20260506185414 55 145 6.0 16.0 0.00 0.00 0.00 93 1011.8
20260506184414 55 239 5.0 13.0 0.00 0.00 0.00 92 1012.0
20260506183914 55 157 6.0 16.0 0.00 0.00 0.00 92 1012.0
20260506183414 55 249 6.0 16.0 0.00 0.00 0.00 92 1012.2
20260506182914 55 164 6.0 16.0 0.00 0.00 0.00 92 1012.4
20260506182415 56 155 6.0 16.0 0.00 0.00 0.00 92 1012.4
20260506181914 56 258 3.0 13.0 0.00 0.00 0.00 92 1012.5
20260506181414 56 96 5.0 17.0 0.00 0.00 0.00 91 1012.5
20260506180914 56 168 6.0 18.0 0.00 0.00 0.00 91 1012.6
20260506180414 56 174 9.0 18.0 0.00 0.00 0.00 92 1012.6
20260506175915 56 245 8.0 17.0 0.00 0.00 0.00 92 1012.7
20260506175414 55 195 5.0 13.0 0.00 0.00 0.00 92 1012.7
20260506174915 55 296 5.0 13.0 0.00 0.00 0.00 92 1012.8
20260506174415 55 105 5.0 13.0 0.00 0.00 0.00 92 1012.9
20260506173915 55 178 7.0 16.0 0.00 0.00 0.00 92 1012.9
20260506173414 55 142 3.0 16.0 0.00 0.00 0.00 92 1012.9
20260506172915 55 195 7.0 16.0 0.00 0.00 0.00 91 1012.9
20260506172416 55 159 6.0 14.0 0.00 0.00 0.00 91 1013.2
20260506161410 57 164 5.0 12.0 0.00 0.00 0.00 90 1014.4
20260506160910 57 189 6.0 12.0 0.00 0.00 0.00 90 1014.5
20260506160411 57 197 5.0 12.0 0.00 0.00 0.00 90 1014.6
20260506155911 57 208 5.0 10.0 0.00 0.00 0.00 90 1014.5
20260506155411 57 33 3.0 10.0 0.00 0.00 0.00 90 1014.5
20260506154910 57 201 4.0 10.0 0.00 0.00 0.00 90 1014.7
20260506154410 57 172 2.0 12.0 0.00 0.00 0.00 90 1014.7
20260506153910 57 177 5.0 12.0 0.00 0.00 0.00 90 1014.8
20260506153410 57 182 7.0 12.0 0.00 0.00 0.00 89 1014.9
20260506152911 58 239 5.0 10.0 0.00 0.00 0.00 89 1014.8
20260506152412 58 197 3.0 10.0 0.00 0.00 0.00 90 1014.7
20260506151912 58 49 3.0 12.0 0.00 0.00 0.00 90 1014.7
20260506151411 58 149 6.0 12.0 0.00 0.00 0.00 89 1014.8
20260506150910 58 144 3.0 14.0 0.00 0.00 0.00 90 1014.6
20260506150411 58 149 6.0 14.0 0.00 0.00 0.00 90 1014.4
20260506145910 58 196 7.0 14.0 0.00 0.00 0.00 90 1014.2
20260506145410 58 193 5.0 16.0 0.00 0.00 0.00 90 1014.3
20260506143912 57 172 3.0 9.0 0.00 0.00 0.00 91 1014.3
20260506143411 57 195 5.0 9.0 0.00 0.00 0.00 92 1014.4
20260506142911 57 122 3.0 12.0 0.00 0.00 0.00 92 1014.5
20260506142411 57 124 6.0 12.0 0.00 0.00 0.00 92 1014.6
20260506141910 57 216 2.0 14.0 0.00 0.00 0.00 93 1014.8
20260506141410 56 145 5.0 14.0 0.00 0.00 0.00 93 1014.9
20260506140910 56 154 5.0 14.0 0.00 0.00 0.00 93 1014.9
20260506140411 56 189 4.0 8.0 0.00 0.00 0.00 94 1014.9
20260506135910 56 182 3.0 10.0 0.00 0.00 0.00 94 1014.9
20260506135411 56 131 5.0 10.0 0.00 0.00 0.00 94 1014.9
20260506134911 56 167 4.0 12.0 0.00 0.00 0.00 93 1014.8
20260506134410 56 188 6.0 13.0 0.00 0.00 0.00 93 1014.9
20260506133910 56 142 3.0 16.0 0.00 0.00 0.00 93 1014.8
20260506132910 56 181 6.0 12.0 0.00 0.00 0.00 93 1014.7
20260506132410 56 80 3.0 8.0 0.00 0.00 0.00 93 1014.6
20260506131410 56 280 2.0 9.0 0.00 0.00 0.00 94 1014.7
20260506130911 56 173 4.0 8.0 0.00 0.00 0.00 94 1014.7
20260506130410 56 91 3.0 7.0 0.00 0.00 0.00 94 1014.5
20260506125910 55 209 2.0 6.0 0.00 0.00 0.00 94 1014.6
20260506125411 55 95 1.0 10.0 0.00 0.00 0.00 94 1014.5
20260506124911 55 139 3.0 10.0 0.00 0.00 0.00 94 1014.6
20260506124412 55 209 2.0 9.0 0.00 0.00 0.00 94 1014.6
20260506123911 55 150 1.0 9.0 0.00 0.00 0.00 95 1014.6
20260506122911 55 119 2.0 8.0 0.00 0.00 0.00 95 1014.8
20260506122410 55 226 0.0 9.0 0.00 0.00 0.00 95 1014.8
20260506121911 55 172 4.0 9.0 0.00 0.00 0.00 95 1014.8
20260506121411 55 197 1.0 8.0 0.00 0.00 0.00 95 1014.7
20260506120910 55 229 4.0 8.0 0.00 0.00 0.00 95 1014.8
20260506120411 54 153 3.0 8.0 0.00 0.00 0.00 96 1014.7
20260506115910 54 152 4.0 8.0 0.00 0.00 0.00 96 1014.8
20260506114911 54 197 3.0 8.0 0.00 0.00 0.00 96 1015.2
20260506114411 54 168 0.0 9.0 0.00 0.00 0.00 96 1014.9
20260506113910 54 114 4.0 9.0 0.00 0.00 0.00 96 1014.9
20260506113411 54 202 4.0 9.0 0.00 0.00 0.00 96 1014.9
20260506112910 53 151 3.0 9.0 0.00 0.00 0.00 96 1015.1
20260506112410 53 132 0.0 8.0 0.00 0.00 0.00 97 1015.1
20260506111911 53 133 4.0 8.0 0.00 0.00 0.00 96 1015.1
20260506111410 53 116 2.0 8.0 0.00 0.00 0.00 97 1015.1
20260506110412 53 139 2.0 9.0 0.00 0.00 0.00 97 1014.9
20260506105910 52 143 3.0 8.0 0.00 0.00 0.00 96 1014.9
20260506105410 52 295 1.0 9.0 0.00 0.00 0.00 97 1014.9